OpenBCM V1.08-5-g2f4a (Linux)

Packet Radio Mailbox

IZ3LSV

[San Dona' di P. JN]

 Login: GUEST





  
I0OJJ  > KEPS     26.07.25 02:45l 343 Lines 16342 Bytes #156 (0) @ AMSAT
BID : ORB25207.1
Read: GUEST
Subj: 2Line Orbital Elements 25207.AMSAT
Path: IZ3LSV<IK6IHL<IK7NXU<HB9ON<DK0WUE<PD0LPM<IR0AAB<I0OJJ
Sent: 250726/0025z @:I0OJJ.ITA.EU [Rome] obcm1.08-10-g596e
From: I0OJJ @ I0OJJ.ITA.EU (Gustavo)
To:   KEPS @ AMSAT
X-Info: This message was generated automatically


QST de W1STR

AMSAT Orbital Elements for Amateur Satellites in TLE Format
From Orbital Analysis Office
New England Sci-Tech STEM Education Center
Natick, MA July 26, 2025
To all radio amateurs


These element sets describe the orbits of various satellites 
in use by the amateur radio community. For details see:
www.amsat.org/keplerian-elements-formats/

A daily update of element sets is available at:
www.amsat.org/tle/daily-bulletin.txt
or without bulletin text:
www.amsat.org/tle/dailytle.txt


AO-07
1 07530U 74089B   25206.54527303 -.00000029  00000-0  10583-3 0  9999
2 07530 101.9944 211.3000 0012486  36.0796  94.9552 12.53690402319586
UO-11
1 14781U 84021B   25206.48548120  .00001204  00000-0  13218-3 0  9998
2 14781  97.7575 171.9567 0007805 173.5002 186.6318 14.89492588208479
AO-27
1 22825U 93061C   25206.72151618  .00000107  00000-0  57912-4 0  9990
2 22825  98.7342 268.5013 0007985 345.4505  14.6446 14.30811667660581
FO-29
1 24278U 96046B   25206.22215093 -.00000020  00000-0  17843-4 0  9997
2 24278  98.5695  94.0998 0349220 224.2314 133.0423 13.53250852428941
NOAA-15
1 25338U 98030A   25206.73841755  .00000190  00000-0  95736-4 0  9990
2 25338  98.5339 230.7553 0009464 218.7798 141.2705 14.27001645414986
GO-32
1 25397U 98043D   25206.49381367  .00000062  00000-0  47092-4 0  9990
2 25397  98.9733 186.5783 0002377  82.4716 277.6732 14.24324371404825
ISS
1 25544U 98067A   25206.81194787  .00012404  00000-0  22419-3 0  9992
2 25544  51.6349 115.6307 0002039 116.0310 244.0889 15.50098341521154
NO-44
1 26931U 01043C   25206.47116062  .00000130  00000-0  79559-4 0  9994
2 26931  67.0520   9.1844 0006383 276.8802  83.1574 14.31752680243679
SO-50
1 27607U 02058C   25205.97650940  .00000981  00000-0  13897-3 0  9990
2 27607  64.5527  60.3935 0061198 324.2159  35.4852 14.81732527215959
CO-55
1 27844U 03031E   25206.49189945  .00000306  00000-0  15221-3 0  9999
2 27844  98.6765 214.1738 0010705  58.3895 301.8327 14.24025316145175
CO-57
1 27848U 03031J   25205.96974757  .00000263  00000-0  13531-3 0  9991
2 27848  98.6791 213.6296 0010741  75.2817 284.9551 14.23355711144828
RS-22
1 27939U 03042A   25206.75750128  .00001039  00000-0  17216-3 0  9992
2 27939  98.3318  17.3356 0010603 218.7921 267.3242 14.72440890167626
CO-58
1 28895U 05043F   25206.36250194  .00001602  00000-0  26833-3 0  9993
2 28895  98.2554 351.3017 0015029 157.5792 202.6074 14.71136629 53672
CO-65
1 32785U 08021C   25206.49299136  .00004157  00000-0  29875-3 0  9995
2 32785  97.7869 178.0152 0011255  63.0085 297.2289 15.04789486935988
CO-66
1 32791U 08021J   25206.48189444  .00011472  00000-0  54150-3 0  9993
2 32791  97.7296 187.5818 0004325  40.8086 319.3471 15.19611512937461
RS-30
1 32953U 08025A   25206.75786129  .00000010  00000-0  38392-5 0  9998
2 32953  82.5017 198.4605 0018228 307.7409  52.2019 12.43166579779276
NOAA-19
1 33591U 09005A   25206.71378167  .00000168  00000-0  11337-3 0  9993
2 33591  98.9952 271.6724 0012993 230.4799 129.5225 14.13393800848628
SRMSAT
1 37841U 11058D   25206.40143510  .00000383  00000-0  64197-4 0  9996
2 37841  19.9708 237.2644 0011623 208.1564 180.0776 14.11446770711593
ZACUBE-1
1 39417U 13066B   25206.44458371  .00003891  00000-0  33738-3 0  9999
2 39417  97.7833 163.2324 0041746 258.4331 101.2203 14.97013748631779
Delfi-N3xt
1 39428U 13066N   25206.73941314  .00004369  00000-0  44324-3 0  9991
2 39428  97.8324 123.8859 0083115 207.4630 152.2183 14.88838950626120
GOMX-1
1 39430U 13066Q   25206.70849194  .00001981  00000-0  31135-3 0  9997
2 39430  97.6791  62.5339 0133362  45.2600 315.9369 14.67796358622173
LO-74
1 39440U 13066AA  25206.81148433  .00004098  00000-0  41318-3 0  9994
2 39440  97.8509 151.0624 0062564  28.9816 331.4852 14.90219361629522
AO-73
1 39444U 13066AE  25206.49616309  .00005891  00000-0  43662-3 0  9990
2 39444  97.7861 168.6071 0040265 229.1326 130.6407 15.02846099630481
DTUSAT-2
1 40030U 14033W   25206.39186046  .00006163  00000-0  39656-3 0  9998
2 40030  98.0579 180.4494 0007179 263.3872  96.6538 15.08758432603304
EO-80
1 40032U 14033Y   25206.47606069  .00006748  00000-0  43286-3 0  9994
2 40032  98.0457 180.1289 0008040 194.6601 165.4394 15.08829409603290
LILACSAT-2
1 40908U 15049K   25206.76246796  .00011251  00000-0  28538-3 0  9991
2 40908  97.5041 228.2487 0008686   7.4231 352.7142 15.39824620545331
IO-86
1 40931U 15052B   25151.18580175  .00001241  00000-0  78118-4 0  9996
2 40931   6.0006  24.0987 0012733 338.8432  21.1169 14.78805930523047
Horyu-4
1 41340U 16012D   25206.30307514  .00020098  00000-0  50752-3 0  9991
2 41340  30.9954 184.0652 0007004 184.5603 175.4980 15.38548160519839
Lapan A3
1 41603U 16040E   25206.74004915  .00003700  00000-0  12915-3 0  9991
2 41603  97.1375 209.5454 0012860 103.1068 257.1609 15.30123496504848
CAS-2T
1 41847U 16066G   25206.70700519  .00001138  00000-0  16952-3 0  9996
2 41847  98.4185 280.7624 0346350  39.1231 323.4461 14.43611921457674
CAS-4B
1 42759U 17034B   25206.76672607  .00080775  00000-0  65782-3 0  9996
2 42759  43.0056  45.4232 0022742 257.0661 102.7666 15.69340104449841
CAS-4A
1 42761U 17034D   25206.75637176  .00089927  00000-0  67886-3 0  9995
2 42761  43.0093  42.0522 0023840 261.5858  98.2307 15.71072638449879
TechnoSat
1 42829U 17042E   25206.48411059  .00004162  00000-0  32145-3 0  9997
2 42829  97.3897  12.9910 0017381 123.0054 237.2844 15.01940655437614
AO-91
1 43017U 17073E   25206.06889036  .00009396  00000-0  47410-3 0  9994
2 43017  97.5181  75.6917 0170962  12.1116 348.4142 15.05408140416050
S-Net D
1 43186U 18014G   25206.62582129  .00004782  00000-0  28056-3 0  9991
2 43186  97.5576 109.0633 0010655  71.0944 289.1440 15.12181731409334
S-Net B
1 43187U 18014H   25206.30096618  .00004205  00000-0  24730-3 0  9995
2 43187  97.5584 108.7159 0011391  67.8715 292.3723 15.12158143409285
S-Net A
1 43188U 18014J   25206.62605339  .00004806  00000-0  28186-3 0  9993
2 43188  97.5589 109.1936 0011192  67.5147 292.7267 15.12186920409331
S-Net C
1 43189U 18014K   25206.30348888  .00004208  00000-0  24742-3 0  9992
2 43189  97.5608 108.8963 0012705  61.5010 298.7499 15.12154668407834
Ten-Koh
1 43677U 18084G   25206.47069678  .00002258  00000-0  18308-3 0  9990
2 43677  98.0839  20.5418 0009050 109.5655 250.6546 15.00744899367125
PO-101
1 43678U 18084H   25206.73243760  .00001407  00000-0  12295-3 0  9990
2 43678  98.1068  24.6283 0009017 124.6926 235.5146 14.98506330367296
QO-100
1 43700U 18090A   25206.20032995  .00000132  00000-0  00000-0 0  9993
2 43700   0.0224  75.8349 0000940  52.3443 272.8873  1.00268598 24398
MinXSS-2
1 43758U 18099A   25206.74620581  .00014784  00000-0  56062-3 0  9998
2 43758  97.4995 272.9625 0010890   0.8678 359.2577 15.26919030364010
AO-95
1 43770U 18099N   25206.60672122  .00008308  00000-0  41210-3 0  9999
2 43770  97.4887 264.1962 0011631  58.7875 301.4497 15.17916100363537
RANGE-A
1 43773U 18099R   25206.61249943  .00005107  00000-0  32255-3 0  9997
2 43773  97.4452 253.6817 0012038  40.8459 319.3670 15.09435758363168
MOVE-II
1 43780U 18099Y   25194.80194206  .15913345  26116-5  37118-3 0  9995
2 43780  97.4526 273.8800 0018736 270.1080  89.8075 16.44566529363241
SNUSat 2
1 43782U 18099AA  25206.38152939  .00006554  00000-0  35235-3 0  9997
2 43782  97.4567 260.3482 0011581   3.3248 356.8059 15.15157221363430
SnugLite
1 43784U 18099AC  25206.09948922  .00009792  00000-0  48120-3 0  9996
2 43784  97.4383 259.7272 0003370  24.9486 335.1910 15.18242350363546
ITASat 1
1 43786U 18099AE  25206.10848032  .00006903  00000-0  38916-3 0  9994
2 43786  97.4536 259.4538 0015231  53.9591 306.3049 15.13401278363340
EAGLET 1
1 43790U 18099AJ  25206.43120400  .00004616  00000-0  29242-3 0  9998
2 43790  97.4734 259.5713 0012733  38.6794 321.5345 15.09369824362982
ESEO
1 43792U 18099AL  25206.61490973  .00002381  00000-0  18226-3 0  9992
2 43792  97.4434 252.3899 0012467   8.8198 351.3244 15.02744998362732
CSIM
1 43793U 18099AM  25206.75755603  .00571033  13473-3  15512-2 0  9992
2 43793  97.4711 288.6882 0005514 274.9819  85.0826 15.94171860364941
JO-97
1 43803U 18099AX  25206.43112498  .00010586  00000-0  47046-3 0  9996
2 43803  97.4636 265.1164 0006709 357.5809   2.5393 15.21684638363748
Suomi 100
1 43804U 18099AY  25206.38953696  .00008815  00000-0  42249-3 0  9996
2 43804  97.4700 264.2373 0011569 356.0627   4.0514 15.19095813363655
ISAT
1 43879U 18111D   25206.32295049  .00018498  00000-0  61168-3 0  9997
2 43879  97.5923 121.7660 0009712  49.1768 311.0313 15.31362800360690
UWE-4
1 43880U 18111E   25206.29721708  .00014782  00000-0  55887-3 0  9994
2 43880  97.5870 119.8879 0013285  56.9539 303.2974 15.26993035360606
Sparrow
1 43881U 18111F   25206.33204678  .00019844  00000-0  62950-3 0  9995
2 43881  97.6076 124.8358 0008885  83.3496 276.8756 15.32690181360796
Prox-1
1 44339U 19036A   25206.18590603  .00010854  00000-0  13452-2 0  9994
2 44339  23.9965 122.0497 0007423 231.4282 128.5551 14.80694440324783
SONATE
1 44400U 19038Q   25185.47540524  .09032085  27445-5  31847-3 0  9995
2 44400  97.6609 216.4776 0012462 246.7970 113.2018 16.43248376333575
Taurus 1
1 44530U 19059C   25206.72703869  .00005529  00000-0  10115-2 0  9998
2 44530  98.6116 348.3344 0008376 246.8689 113.1631 14.66272504310709
Duchifat 3
1 44854U 19089C   25205.95979043  .00055473  00000-0  95481-3 0  9996
2 44854  36.9419  65.9240 0006846 318.6015  41.4223 15.50024502310052
TO-108
1 44881U 19093C   25206.76371995  .00000892  00000-0  10882-3 0  9990
2 44881  97.7910 281.4460 0015237  81.3282 278.9659 14.85677273302930
